When you browse on this site, cookies collect data to enhance your experience and personalize the content and advertising you see.
Visit our Privacy Policy to learn more. By continuing to use the site, you agree to this use of cookies and data.
  • In United Kingdom
  • List of Countries
  • For 7 days
  • Water Temperature
  • Satellite Maps
  • Weather Map
  • Weather Widgets
  • user-avatar
    Login

    Hourly Weather Okoyo

    Today, 9 December, Sunday

    Time Temperature Precipitation Wind Pressure Humidity
    00:00 +25°C° 0.2 mm 1 mps 725 mmHg 75%
    01:00 +25°C° 0 mm 1 mps 725 mmHg 78%
    02:00 +25°C° 0.1 mm 1 mps 725 mmHg 81%
    03:00 +24°C° 0.1 mm 1 mps 725 mmHg 83%
    04:00 +24°C° 0.1 mm 1 mps 725 mmHg 86%
    05:00 +24°C° 0 mm 1 mps 725 mmHg 86%
    06:00 +25°C° 0 mm 1 mps 725 mmHg 86%
    07:00 +25°C° 0 mm 2 mps 726 mmHg 85%
    08:00 +27°C° 0 mm 2 mps 726 mmHg 78%
    09:00 +29°C° 0 mm 1 mps 726 mmHg 71%
    10:00 +30°C° 0 mm 1 mps 726 mmHg 64%
    11:00 +32°C° 0 mm 1 mps 725 mmHg 58%
    12:00 +34°C° 0 mm 1 mps 725 mmHg 52%
    13:00 +31°C° 0 mm 0 mps 724 mmHg 49%
    14:00 +33°C° 0 mm 1 mps 724 mmHg 51%
    15:00 +33°C° 0 mm 1 mps 723 mmHg 52%
    16:00 +32°C° 0 mm 1 mps 723 mmHg 54%
    17:00 +31°C° 0.1 mm 1 mps 723 mmHg 58%
    18:00 +29°C° 0.1 mm 1 mps 724 mmHg 63%
    19:00 +28°C° 0.1 mm 1 mps 724 mmHg 67%
    20:00 +27°C° 0.2 mm 1 mps 724 mmHg 70%
    21:00 +27°C° 0.2 mm 1 mps 725 mmHg 73%
    22:00 +26°C° 0.2 mm 1 mps 725 mmHg 75%
    23:00 +26°C° 0 mm 1 mps 725 mmHg 77%

    Tomorrow, 10 December, Monday

    Time Temperature Precipitation Wind Pressure Humidity
    00:00 +26°C° 0 mm 1 mps 725 mmHg 79%
    01:00 +25°C° 0 mm 1 mps 725 mmHg 81%
    02:00 +25°C° 0 mm 1 mps 725 mmHg 83%
    03:00 +25°C° 0 mm 1 mps 725 mmHg 84%
    04:00 +25°C° 0 mm 1 mps 724 mmHg 86%
    05:00 +25°C° 0 mm 2 mps 725 mmHg 85%
    06:00 +25°C° 0 mm 2 mps 725 mmHg 84%
    07:00 +26°C° 0 mm 2 mps 725 mmHg 84%
    08:00 +27°C° 0.1 mm 2 mps 726 mmHg 77%
    09:00 +29°C° 0.1 mm 2 mps 726 mmHg 70%
    10:00 +31°C° 0.1 mm 2 mps 726 mmHg 63%
    11:00 +32°C° 0.1 mm 1 mps 726 mmHg 57%
    12:00 +34°C° 0.1 mm 1 mps 725 mmHg 51%
    13:00 +34°C° 0.1 mm 0 mps 724 mmHg 46%
    14:00 +33°C° 0 mm 0 mps 724 mmHg 48%
    15:00 +32°C° 0 mm 0 mps 723 mmHg 51%
    16:00 +31°C° 0 mm 0 mps 722 mmHg 53%
    17:00 +29°C° 0 mm 0 mps 723 mmHg 56%
    18:00 +30°C° 0 mm 1 mps 723 mmHg 60%
    19:00 +29°C° 0 mm 1 mps 724 mmHg 63%
    20:00 +28°C° 0.5 mm 1 mps 724 mmHg 67%
    21:00 +28°C° 0.5 mm 1 mps 725 mmHg 70%
    22:00 +27°C° 0.5 mm 1 mps 726 mmHg 74%
    23:00 +26°C° 0.4 mm 2 mps 726 mmHg 78%

    Day after tomorrow, 11 December, Tuesday

    Time Temperature Precipitation Wind Pressure Humidity
    00:00 +26°C° 0.4 mm 2 mps 725 mmHg 82%
    01:00 +25°C° 0.4 mm 3 mps 725 mmHg 86%
    02:00 +25°C° 0 mm 3 mps 725 mmHg 87%
    03:00 +24°C° 0 mm 3 mps 724 mmHg 88%
    04:00 +24°C° 0 mm 2 mps 724 mmHg 89%
    05:00 +24°C° 0 mm 3 mps 724 mmHg 88%
    06:00 +25°C° 0 mm 3 mps 725 mmHg 87%
    07:00 +25°C° 0 mm 3 mps 725 mmHg 86%
    08:00 +27°C° 0 mm 3 mps 725 mmHg 78%
    09:00 +29°C° 0 mm 3 mps 726 mmHg 69%
    10:00 +31°C° 0 mm 3 mps 726 mmHg 61%
    11:00 +32°C° 0 mm 2 mps 725 mmHg 58%
    12:00 +34°C° 0 mm 2 mps 725 mmHg 55%
    13:00 +34°C° 0 mm 1 mps 724 mmHg 51%
    14:00 +33°C° 0.2 mm 1 mps 723 mmHg 52%
    15:00 +33°C° 0.2 mm 1 mps 723 mmHg 53%
    16:00 +33°C° 0.2 mm 1 mps 722 mmHg 54%
    17:00 +31°C° 0.1 mm 1 mps 723 mmHg 60%
    18:00 +30°C° 0.1 mm 1 mps 723 mmHg 66%
    19:00 +28°C° 0.1 mm 2 mps 723 mmHg 72%
    20:00 +27°C° 0 mm 2 mps 724 mmHg 75%
    21:00 +27°C° 0 mm 2 mps 725 mmHg 77%
    22:00 +26°C° 0 mm 2 mps 725 mmHg 80%
    23:00 +26°C° 0 mm 2 mps 725 mmHg 81%

    12 December, Wednesday

    Time Temperature Precipitation Wind Pressure Humidity
    00:00 +26°C° 0 mm 2 mps 724 mmHg 82%
    01:00 +25°C° 0 mm 1 mps 724 mmHg 83%
    02:00 +25°C° 0.1 mm 1 mps 724 mmHg 84%
    03:00 +25°C° 0.1 mm 1 mps 724 mmHg 85%
    04:00 +25°C° 0.1 mm 1 mps 724 mmHg 85%
    05:00 +25°C° 0.1 mm 1 mps 724 mmHg 85%
    06:00 +25°C° 0.1 mm 1 mps 724 mmHg 84%
    07:00 +26°C° 0.1 mm 2 mps 725 mmHg 83%
    08:00 +28°C° 0 mm 2 mps 725 mmHg 74%
    09:00 +30°C° 0 mm 2 mps 726 mmHg 66%
    10:00 +32°C° 0 mm 2 mps 726 mmHg 57%
    11:00 +34°C° 0 mm 2 mps 725 mmHg 54%
    12:00 +35°C° 0 mm 2 mps 724 mmHg 50%
    13:00 +36°C° 0 mm 2 mps 724 mmHg 47%
    14:00 +35°C° 0.3 mm 2 mps 723 mmHg 50%
    15:00 +34°C° 0.3 mm 2 mps 722 mmHg 54%
    16:00 +32°C° 0.3 mm 2 mps 722 mmHg 57%
    17:00 +31°C° 0.3 mm 2 mps 722 mmHg 64%
    18:00 +29°C° 0.3 mm 1 mps 723 mmHg 71%
    19:00 +27°C° 0.3 mm 1 mps 723 mmHg 78%
    20:00 +27°C° 0.2 mm 1 mps 724 mmHg 80%
    21:00 +27°C° 0.2 mm 1 mps 724 mmHg 82%
    22:00 +26°C° 0.2 mm 1 mps 725 mmHg 84%
    23:00 +26°C° 0.5 mm 1 mps 724 mmHg 86%

    13 December, Thursday

    Time Temperature Precipitation Wind Pressure Humidity
    00:00 +25°C° 0.5 mm 1 mps 724 mmHg 87%
    01:00 +25°C° 0.5 mm 2 mps 724 mmHg 88%
    02:00 +25°C° 0.9 mm 1 mps 724 mmHg 87%
    03:00 +25°C° 0.9 mm 1 mps 724 mmHg 87%
    04:00 +25°C° 0.9 mm 1 mps 724 mmHg 87%
    05:00 +25°C° 0.5 mm 1 mps 725 mmHg 86%
    06:00 +25°C° 0.5 mm 2 mps 725 mmHg 86%
    07:00 +26°C° 0.5 mm 2 mps 726 mmHg 86%
    08:00 +28°C° 0 mm 2 mps 726 mmHg 77%
    09:00 +29°C° 0 mm 2 mps 726 mmHg 68%
    10:00 +31°C° 0 mm 1 mps 726 mmHg 60%
    11:00 +33°C° 0 mm 1 mps 725 mmHg 55%
    12:00 +33°C° 0 mm 0 mps 725 mmHg 49%
    13:00 +35°C° 0 mm 0 mps 724 mmHg 44%
    14:00 +34°C° 0 mm 0 mps 723 mmHg 47%
    15:00 +33°C° 0 mm 0 mps 722 mmHg 49%
    16:00 +31°C° 0 mm 0 mps 722 mmHg 52%
    17:00 +32°C° 0 mm 1 mps 722 mmHg 56%
    18:00 +31°C° 0 mm 1 mps 723 mmHg 60%
    19:00 +30°C° 0 mm 1 mps 723 mmHg 63%
    20:00 +29°C° 1.9 mm 1 mps 723 mmHg 70%
    21:00 +28°C° 1.9 mm 1 mps 724 mmHg 77%
    22:00 +27°C° 1.9 mm 1 mps 724 mmHg 84%
    23:00 +26°C° 2.4 mm 1 mps 724 mmHg 84%

    14 December, Friday

    Time Temperature Precipitation Wind Pressure Humidity
    00:00 +26°C° 2.4 mm 1 mps 724 mmHg 85%
    01:00 +26°C° 2.4 mm 1 mps 724 mmHg 86%
    02:00 +26°C° 0.8 mm 1 mps 724 mmHg 86%
    03:00 +26°C° 0.8 mm 1 mps 724 mmHg 86%
    04:00 +25°C° 0.8 mm 1 mps 724 mmHg 87%
    05:00 +26°C° 0 mm 1 mps 724 mmHg 86%
    06:00 +26°C° 0 mm 1 mps 725 mmHg 85%
    07:00 +26°C° 0 mm 1 mps 725 mmHg 85%
    08:00 +28°C° 0 mm 2 mps 725 mmHg 77%
    09:00 +30°C° 0 mm 2 mps 725 mmHg 69%
    10:00 +33°C° 0 mm 3 mps 725 mmHg 61%
    11:00 +34°C° 0 mm 2 mps 725 mmHg 56%
    12:00 +35°C° 0 mm 2 mps 724 mmHg 52%
    13:00 +35°C° 0 mm 1 mps 723 mmHg 47%
    14:00 +34°C° 0 mm 1 mps 723 mmHg 50%
    15:00 +34°C° 0 mm 1 mps 722 mmHg 53%
    16:00 +31°C° 0 mm 0 mps 722 mmHg 56%
    17:00 +32°C° 0.1 mm 1 mps 722 mmHg 60%
    18:00 +30°C° 0.1 mm 1 mps 723 mmHg 64%
    19:00 +29°C° 0.1 mm 1 mps 724 mmHg 68%
    20:00 +28°C° 1.4 mm 1 mps 724 mmHg 74%
    21:00 +27°C° 1.4 mm 1 mps 724 mmHg 80%
    22:00 +26°C° 1.4 mm 2 mps 724 mmHg 86%
    23:00 +26°C° 0.2 mm 2 mps 724 mmHg 87%
    Show more